CDT,Max TemperatureF,Mean TemperatureF,Min TemperatureF,Max Dew PointF,MeanDew PointF,Min DewpointF,Max Humidity, Mean Humidity, Min Humidity, Max Sea Level PressureIn, Mean Sea Level PressureIn, Min Sea Level PressureIn, Max VisibilityMiles, Mean VisibilityMiles, Min VisibilityMiles, Max Wind SpeedMPH, Mean Wind SpeedMPH, Max Gust SpeedMPH,PrecipitationIn, CloudCover, Events, WindDirDegrees
2012-9-1,83,70,57,58,48,43,79,52,28,30.35,30.17,29.71,7,6,3,18,7,,0.28,7,Thunderstorm,84
2012-9-2,84,70,57,59,48,43,80,48,25,30.38,30.20,29.66,8,6,3,17,7,,0.00,6,,73
2012-9-3,86,68,51,65,52,43,94,57,27,30.38,30.21,29.68,10,7,3,9,4,,0.47,3,,69
2012-9-4,83,66,48,60,51,45,100,61,28,30.37,30.19,29.73,7,6,1,12,4,,0.04,3,,289
2012-9-5,86,67,48,59,47,37,100,51,12,30.31,30.15,29.58,14,6,0,9,4,,0.00,3,Fog,117
2012-9-6,88,68,48,56,49,45,94,51,20,30.32,30.12,29.60,7,6,3,14,4,,0.00,4,,27
2012-9-7,87,68,50,56,47,39,82,50,17,30.32,30.15,29.62,10,7,2,12,5,,0.00,5,,356
2012-9-8,86,70,53,56,48,41,82,50,15,30.30,30.09,29.57,7,6,3,23,7,,0.00,4,,57
2012-9-9,82,66,51,55,46,41,76,50,21,30.35,30.19,29.70,8,6,3,20,9,,0.00,5,,62
2012-9-10,80,68,56,55,50,43,82,57,27,30.38,30.22,29.72,14,8,3,24,9,,0.00,5,,59
2012-9-11,82,71,60,61,53,43,82,58,26,30.35,30.17,29.68,10,7,3,21,8,,0.00,7,,61
2012-9-12,81,70,59,57,55,50,88,64,30,30.34,30.17,29.67,7,6,3,14,4,,0.28,7,Rain,106
2012-9-13,82,68,55,57,54,44,94,67,16,30.36,30.21,29.75,12,6,2,14,7,,0.08,7,Rain,42
2012-9-14,82,71,60,59,52,43,94,61,23,30.37,30.19,29.68,7,6,3,20,7,,0.00,6,,80
2012-9-15,81,69,57,55,47,39,82,50,25,30.39,30.22,29.71,7,7,6,17,8,,0.00,5,,68
2012-9-16,83,70,57,59,46,41,84,50,22,30.36,30.18,29.65,12,6,3,14,5,,0.79,7,Rain-Thunderstorm,300
2012-9-17,79,68,57,56,50,39,91,57,31,30.33,30.14,29.64,10,6,3,12,4,,0.55,6,Rain,273
2012-9-18,83,69,55,57,50,41,94,55,21,30.32,30.14,29.65,10,7,3,14,6,,0.00,4,,77
2012-9-19,76,62,48,54,47,40,88,59,30,30.40,30.22,29.79,8,7,3,18,7,,0.00,5,,72
2012-9-20,78,63,48,55,51,45,88,65,23,30.38,30.20,29.72,10,7,3,18,9,,0.00,3,,71
2012-9-21,80,62,44,50,45,38,88,56,16,30.32,30.14,29.64,10,6,3,20,8,,0.00,4,,72
2012-9-22,78,64,51,49,45,43,82,55,25,30.36,30.18,29.73,8,6,3,16,8,,0.00,5,,62
2012-9-23,76,63,50,53,44,39,82,52,29,30.40,30.25,29.82,10,7,6,17,8,,0.00,4,,65
2012-9-24,78,66,54,57,50,43,94,62,32,30.39,30.25,29.75,14,8,6,17,8,,0.00,6,,61
2012-9-25,80,70,57,54,47,39,76,52,26,30.34,30.15,29.64,12,8,3,17,7,,0.00,5,,60
2012-9-26,83,68,53,59,53,48,94,65,24,30.32,30.15,29.63,12,6,2,40,6,29,0.00,5,Rain-Thunderstorm,90
2012-9-27,82,71,60,64,56,50,100,70,27,30.34,30.18,29.66,6,5,1,12,3,,0.16,7,Rain-Thunderstorm,76
2012-9-28,80,70,59,60,53,41,94,63,33,30.31,30.14,29.66,6,5,3,12,4,,0.00,7,Rain,156
2012-9-29,84,72,59,59,51,43,81,55,27,30.30,30.10,29.59,6,5,2,7,2,,0.02,6,Thunderstorm,218
2012-9-30,82,71,60,64,48,41,85,50,29,30.25,30.06,29.56,14,6,3,27,3,,0.24,6,Rain,62